MLH9948 KBGR-KMZJ

Flight info

Callsign MLH9948
Flight time 5h 54m
Altitude 38000
Route SYR JHW LNDOR KLOEE FWA KG63K KK45A ONM TUS
Aircraft A320/M-L/5517

Departure

Time 2026-05-05 08:11
Airport Bangor International Airport (KBGR)

Arrival

Time 2026-05-05 14:05
Airport Pinal Airpark (KMZJ)
Time Latitude Longitude Altitude Speed Heading
2026-05-05 07:53 44.80791 -68.81829 202 ft 0 kts 315°
2026-05-05 08:01 44.80788 -68.81824 203 ft 2 kts 315°
2026-05-05 08:01 44.80776 -68.81807 203 ft 3 kts 315°
2026-05-05 08:02 44.80764 -68.81792 203 ft 2 kts 315°
2026-05-05 08:02 44.80748 -68.81779 203 ft 3 kts 353°
2026-05-05 08:02 44.80729 -68.81784 203 ft 3 kts 24°
2026-05-05 08:02 44.80712 -68.81799 203 ft 3 kts 38°
2026-05-05 08:03 44.80697 -68.81819 203 ft 3 kts 45°
2026-05-05 08:03 44.80683 -68.81838 203 ft 0 kts 44°
2026-05-05 08:03 44.80684 -68.81838 203 ft 0 kts 44°
2026-05-05 08:03 44.80681 -68.81841 203 ft 7 kts 35°
2026-05-05 08:04 44.80691 -68.81834 203 ft 13 kts 16°
2026-05-05 08:04 44.80740 -68.81887 203 ft 8 kts 262°
2026-05-05 08:04 44.80738 -68.81900 203 ft 0 kts 249°
2026-05-05 08:05 44.80738 -68.81901 203 ft 0 kts 249°
2026-05-05 08:05 44.80731 -68.81919 203 ft 6 kts 236°
2026-05-05 08:06 44.80683 -68.81930 203 ft 9 kts 150°
2026-05-05 08:06 44.80628 -68.81856 203 ft 12 kts 134°
2026-05-05 08:06 44.80572 -68.81786 203 ft 11 kts 163°
2026-05-05 08:06 44.80520 -68.81829 203 ft 8 kts 216°
2026-05-05 08:07 44.80462 -68.81814 203 ft 10 kts 139°
2026-05-05 08:07 44.80412 -68.81740 203 ft 12 kts 134°
2026-05-05 08:07 44.80344 -68.81643 203 ft 15 kts 134°
2026-05-05 08:07 44.80262 -68.81524 203 ft 18 kts 134°
2026-05-05 08:08 44.80169 -68.81389 203 ft 18 kts 134°
2026-05-05 08:08 44.80077 -68.81256 203 ft 16 kts 134°
2026-05-05 08:08 44.80000 -68.81144 203 ft 14 kts 134°
2026-05-05 08:08 44.79936 -68.81052 203 ft 13 kts 134°
2026-05-05 08:09 44.79874 -68.80976 203 ft 12 kts 168°
2026-05-05 08:09 44.79805 -68.81013 203 ft 11 kts 205°
2026-05-05 08:09 44.79745 -68.81088 203 ft 12 kts 259°
2026-05-05 08:09 44.79730 -68.81182 203 ft 11 kts 255°
2026-05-05 08:10 44.79711 -68.81292 203 ft 12 kts 270°
2026-05-05 08:10 44.79765 -68.81397 203 ft 23 kts 314°
2026-05-05 08:10 44.80078 -68.81839 203 ft 108 kts 314°
2026-05-05 08:10 44.80770 -68.82835 370 ft 155 kts 314°
2026-05-05 08:11 44.81525 -68.83922 908 ft 159 kts 313°
2026-05-05 08:11 44.82312 -68.85054 1443 ft 170 kts 312°
2026-05-05 08:11 44.83154 -68.86271 2130 ft 182 kts 312°
2026-05-05 08:11 44.84072 -68.87593 2862 ft 194 kts 311°
2026-05-05 08:12 44.85085 -68.89000 3462 ft 214 kts 312°
2026-05-05 08:12 44.86082 -68.90653 4147 ft 228 kts 296°
2026-05-05 08:12 44.86549 -68.92830 4864 ft 238 kts 279°
2026-05-05 08:12 44.86527 -68.95172 5550 ft 242 kts 262°
2026-05-05 08:13 44.85881 -68.97346 6007 ft 252 kts 242°
2026-05-05 08:13 44.85022 -68.99470 5994 ft 247 kts 250°
2026-05-05 08:13 44.84509 -69.01765 6002 ft 244 kts 258°
2026-05-05 08:13 44.84143 -69.04082 6215 ft 238 kts 260°
2026-05-05 08:14 44.83813 -69.06368 6983 ft 240 kts 261°
2026-05-05 08:14 44.83464 -69.08694 7742 ft 243 kts 260°
2026-05-05 08:14 44.83086 -69.11016 8498 ft 248 kts 259°
2026-05-05 08:14 44.82666 -69.13423 9261 ft 255 kts 259°
2026-05-05 08:15 44.82224 -69.15824 10007 ft 257 kts 259°
2026-05-05 08:15 44.81755 -69.18276 10762 ft 262 kts 259°
2026-05-05 08:15 44.81270 -69.20764 11515 ft 265 kts 258°
2026-05-05 08:15 44.80774 -69.23285 12269 ft 268 kts 258°
2026-05-05 08:16 44.80273 -69.25816 13019 ft 267 kts 258°
2026-05-05 08:16 44.79768 -69.28337 13771 ft 267 kts 258°
2026-05-05 08:16 44.79261 -69.30847 14518 ft 267 kts 258°
2026-05-05 08:16 44.78753 -69.33353 15262 ft 271 kts 258°
2026-05-05 08:17 44.78233 -69.35893 16016 ft 271 kts 257°
2026-05-05 08:17 44.77703 -69.38453 16770 ft 274 kts 256°
2026-05-05 08:17 44.77164 -69.41072 17480 ft 280 kts 256°
2026-05-05 08:17 44.76622 -69.43733 18209 ft 285 kts 256°
2026-05-05 08:18 44.76073 -69.46444 18938 ft 291 kts 257°
2026-05-05 08:18 44.75511 -69.49221 19565 ft 300 kts 257°
2026-05-05 08:18 44.74936 -69.52063 20148 ft 309 kts 257°
2026-05-05 08:18 44.74337 -69.55014 20731 ft 317 kts 257°
2026-05-05 08:19 44.73723 -69.58021 21302 ft 321 kts 257°
2026-05-05 08:19 44.73100 -69.61059 21820 ft 328 kts 257°
2026-05-05 08:19 44.72476 -69.64169 22327 ft 332 kts 257°
2026-05-05 08:19 44.71849 -69.67309 22829 ft 335 kts 258°
2026-05-05 08:20 44.71213 -69.70475 23331 ft 338 kts 258°
2026-05-05 08:20 44.70788 -69.72592 23665 ft 339 kts 257°
2026-05-05 08:20 44.70145 -69.75802 24157 ft 341 kts 257°
2026-05-05 08:20 44.69490 -69.79024 24637 ft 345 kts 257°
2026-05-05 08:21 44.68826 -69.82271 25113 ft 347 kts 257°
2026-05-05 08:21 44.68161 -69.85548 25589 ft 350 kts 256°
2026-05-05 08:21 44.67499 -69.88851 26034 ft 352 kts 256°
2026-05-05 08:21 44.66843 -69.92169 26463 ft 353 kts 257°
2026-05-05 08:22 44.66189 -69.95491 26887 ft 354 kts 257°
2026-05-05 08:22 44.65528 -69.98791 27309 ft 357 kts 256°
2026-05-05 08:22 44.64835 -70.02151 27735 ft 359 kts 256°
2026-05-05 08:22 44.64130 -70.05532 28164 ft 363 kts 256°
2026-05-05 08:23 44.63411 -70.08944 28609 ft 364 kts 256°
2026-05-05 08:23 44.62678 -70.12347 29057 ft 363 kts 256°
2026-05-05 08:23 44.61947 -70.15736 29502 ft 363 kts 256°
2026-05-05 08:23 44.61208 -70.19129 29932 ft 367 kts 255°
2026-05-05 08:24 44.60446 -70.22575 30357 ft 371 kts 255°
2026-05-05 08:24 44.59681 -70.26033 30696 ft 370 kts 255°
2026-05-05 08:24 44.58924 -70.29511 30983 ft 374 kts 255°
2026-05-05 08:24 44.58172 -70.33005 31260 ft 375 kts 255°
2026-05-05 08:25 44.57418 -70.36533 31537 ft 379 kts 255°
2026-05-05 08:25 44.56663 -70.40087 31813 ft 384 kts 255°
2026-05-05 08:25 44.55904 -70.43668 32088 ft 389 kts 255°
2026-05-05 08:25 44.55126 -70.47349 32366 ft 390 kts 255°
2026-05-05 08:26 44.54367 -70.50953 32646 ft 390 kts 255°
2026-05-05 08:26 44.53593 -70.54630 32945 ft 396 kts 255°
2026-05-05 08:26 44.52800 -70.58353 33246 ft 398 kts 255°
2026-05-05 08:26 44.52000 -70.62066 33530 ft 400 kts 255°
2026-05-05 08:27 44.51195 -70.65799 33679 ft 401 kts 255°
2026-05-05 08:27 44.50400 -70.69558 33825 ft 399 kts 255°
2026-05-05 08:27 44.49611 -70.73275 34168 ft 398 kts 255°
2026-05-05 08:27 44.48821 -70.76957 34574 ft 400 kts 254°
2026-05-05 08:28 44.48013 -70.80737 35000 ft 401 kts 254°
2026-05-05 08:28 44.47220 -70.84451 35420 ft 401 kts 254°
2026-05-05 08:28 44.46422 -70.88203 35800 ft 403 kts 254°
2026-05-05 08:28 44.45624 -70.91974 36155 ft 403 kts 254°
2026-05-05 08:29 44.44833 -70.95753 36481 ft 405 kts 255°
2026-05-05 08:29 44.44061 -70.99545 36765 ft 405 kts 255°
2026-05-05 08:29 44.43287 -71.03288 37037 ft 406 kts 254°
2026-05-05 08:30 44.41621 -71.10853 37442 ft 407 kts 253°
2026-05-05 08:30 44.40754 -71.14617 37605 ft 408 kts 252°
2026-05-05 08:30 44.39878 -71.18380 37721 ft 401 kts 253°
2026-05-05 08:31 44.38203 -71.25725 37775 ft 397 kts 253°
2026-05-05 08:31 44.36551 -71.33102 37779 ft 397 kts 253°
2026-05-05 08:32 44.34890 -71.40529 37783 ft 404 kts 253°
2026-05-05 08:32 44.33184 -71.48046 37785 ft 409 kts 253°
2026-05-05 08:33 44.31465 -71.55574 37780 ft 408 kts 254°
2026-05-05 08:33 44.29776 -71.63179 37779 ft 408 kts 254°
2026-05-05 08:34 44.28099 -71.70697 37785 ft 408 kts 254°
2026-05-05 08:34 44.26420 -71.78263 37774 ft 408 kts 254°
2026-05-05 08:35 44.24747 -71.85828 37771 ft 408 kts 254°
2026-05-05 08:35 44.23080 -71.93393 37775 ft 408 kts 254°
2026-05-05 08:36 44.21428 -72.00961 37767 ft 408 kts 254°
2026-05-05 08:36 44.19708 -72.08517 37765 ft 408 kts 253°
2026-05-05 08:37 44.17933 -72.16027 37772 ft 408 kts 253°
2026-05-05 08:37 44.16137 -72.23543 37777 ft 410 kts 253°
2026-05-05 08:38 44.14332 -72.31019 37779 ft 410 kts 253°
2026-05-05 08:38 44.12555 -72.38566 37781 ft 409 kts 253°
2026-05-05 08:39 44.10779 -72.46103 37784 ft 409 kts 253°
2026-05-05 08:39 44.09016 -72.53634 37786 ft 409 kts 253°
2026-05-05 08:40 44.07252 -72.61177 37788 ft 409 kts 253°
2026-05-05 08:40 44.05494 -72.68713 37791 ft 409 kts 254°
2026-05-05 08:41 44.03751 -72.76209 37795 ft 410 kts 254°
2026-05-05 08:41 44.02002 -72.83754 37803 ft 409 kts 254°
2026-05-05 08:42 44.00260 -72.91288 37808 ft 409 kts 254°
2026-05-05 08:42 43.98526 -72.98827 37811 ft 409 kts 254°
2026-05-05 08:43 43.96767 -73.06308 37813 ft 410 kts 253°
2026-05-05 08:43 43.94919 -73.13805 37813 ft 410 kts 252°
2026-05-05 08:44 43.93055 -73.21275 37815 ft 410 kts 252°
2026-05-05 08:44 43.91189 -73.28744 37821 ft 410 kts 252°
2026-05-05 08:45 43.89334 -73.36179 37823 ft 410 kts 252°
2026-05-05 08:45 43.87478 -73.43649 37820 ft 409 kts 253°
2026-05-05 08:46 43.85649 -73.51133 37824 ft 409 kts 253°
2026-05-05 08:46 43.83817 -73.58610 37821 ft 409 kts 253°
2026-05-05 08:47 43.82008 -73.66041 37798 ft 409 kts 253°
2026-05-05 08:47 43.80195 -73.73495 37797 ft 403 kts 253°
2026-05-05 08:48 43.78440 -73.80849 37805 ft 403 kts 253°
2026-05-05 08:48 43.76659 -73.88209 37788 ft 403 kts 253°
2026-05-05 08:49 43.74886 -73.95570 37808 ft 403 kts 253°
2026-05-05 08:49 43.73099 -74.02872 37826 ft 403 kts 253°
2026-05-05 08:50 43.71226 -74.10184 37818 ft 403 kts 252°
2026-05-05 08:50 43.69325 -74.17482 37810 ft 403 kts 252°
2026-05-05 08:51 43.67419 -74.24773 37816 ft 403 kts 252°
2026-05-05 08:51 43.65534 -74.32073 37803 ft 403 kts 252°
2026-05-05 08:52 43.63670 -74.39334 37786 ft 403 kts 252°
2026-05-05 08:52 43.61800 -74.46637 37797 ft 403 kts 253°
2026-05-05 08:53 43.59934 -74.53937 37802 ft 403 kts 252°
2026-05-05 08:53 43.58060 -74.61264 37810 ft 405 kts 252°
2026-05-05 08:54 43.56205 -74.68554 37833 ft 405 kts 253°
2026-05-05 08:54 43.54345 -74.75894 37844 ft 405 kts 252°
2026-05-05 08:55 43.52493 -74.83219 37835 ft 405 kts 253°
2026-05-05 08:55 43.50649 -74.90558 37837 ft 405 kts 253°
2026-05-05 08:56 43.48843 -74.97898 37841 ft 404 kts 253°
2026-05-05 08:56 43.46949 -75.05192 37834 ft 403 kts 252°
2026-05-05 08:57 43.44991 -75.12386 37832 ft 404 kts 251°
2026-05-05 08:57 43.43039 -75.19636 37837 ft 403 kts 252°
2026-05-05 08:58 43.41103 -75.26888 37839 ft 403 kts 252°
2026-05-05 08:58 43.39164 -75.34149 37841 ft 403 kts 252°
2026-05-05 08:59 43.37236 -75.41349 37844 ft 403 kts 252°
2026-05-05 08:59 43.35314 -75.48586 37844 ft 403 kts 252°
2026-05-05 09:00 43.33381 -75.55834 37843 ft 403 kts 252°
2026-05-05 09:00 43.31464 -75.63092 37841 ft 403 kts 252°
2026-05-05 09:01 43.29550 -75.70299 37840 ft 403 kts 252°
2026-05-05 09:01 43.27644 -75.77553 37831 ft 404 kts 252°
2026-05-05 09:02 43.25724 -75.84819 37829 ft 405 kts 252°
2026-05-05 09:02 43.23786 -75.92076 37829 ft 405 kts 252°
2026-05-05 09:03 43.21809 -75.99325 37822 ft 405 kts 251°
2026-05-05 09:03 43.19827 -76.06562 37819 ft 405 kts 251°
2026-05-05 09:04 43.17858 -76.13754 37818 ft 405 kts 251°
2026-05-05 09:04 43.15888 -76.20993 37817 ft 405 kts 251°
2026-05-05 09:05 43.13743 -76.28144 37817 ft 406 kts 249°
2026-05-05 09:05 43.11442 -76.35199 37814 ft 406 kts 248°
2026-05-05 09:06 43.09490 -76.41056 37815 ft 407 kts 248°
2026-05-05 09:06 43.07148 -76.48105 37813 ft 406 kts 248°
2026-05-05 09:07 43.04871 -76.55169 37816 ft 406 kts 249°
2026-05-05 09:07 43.02601 -76.62249 37817 ft 406 kts 249°
2026-05-05 09:08 43.00323 -76.69306 37811 ft 405 kts 250°
2026-05-05 09:08 42.98054 -76.76365 37808 ft 405 kts 250°
2026-05-05 09:09 42.95806 -76.83367 37809 ft 405 kts 250°
2026-05-05 09:09 42.93549 -76.90413 37807 ft 405 kts 250°
2026-05-05 09:10 42.91292 -76.97468 37805 ft 405 kts 250°
2026-05-05 09:10 42.89056 -77.04477 37809 ft 405 kts 250°
2026-05-05 09:11 42.86803 -77.11518 37815 ft 405 kts 250°
2026-05-05 09:11 42.84549 -77.18563 37814 ft 405 kts 249°
2026-05-05 09:12 42.82224 -77.25565 37815 ft 405 kts 249°
2026-05-05 09:12 42.79858 -77.32535 37821 ft 405 kts 249°
2026-05-05 09:13 42.77496 -77.39515 37818 ft 405 kts 249°
2026-05-05 09:13 42.75175 -77.46463 37818 ft 405 kts 249°
2026-05-05 09:14 42.72842 -77.53433 37825 ft 406 kts 249°
2026-05-05 09:14 42.70508 -77.60454 37830 ft 406 kts 249°
2026-05-05 09:15 42.68192 -77.67407 37836 ft 406 kts 249°
2026-05-05 09:15 42.65861 -77.74405 37841 ft 406 kts 249°
2026-05-05 09:16 42.63540 -77.81400 37844 ft 406 kts 249°
2026-05-05 09:16 42.61222 -77.88397 37835 ft 406 kts 249°
2026-05-05 09:17 42.58924 -77.95339 37835 ft 405 kts 249°
2026-05-05 09:17 42.56619 -78.02328 37838 ft 405 kts 250°
2026-05-05 09:18 42.54334 -78.09328 37826 ft 405 kts 249°
2026-05-05 09:18 42.51976 -78.16287 37835 ft 404 kts 248°
2026-05-05 09:19 42.49585 -78.23181 37846 ft 404 kts 248°
2026-05-05 09:19 42.47196 -78.30045 37845 ft 404 kts 248°
2026-05-05 09:20 42.44797 -78.36945 37841 ft 404 kts 248°
2026-05-05 09:20 42.42424 -78.43784 37842 ft 404 kts 248°
2026-05-05 09:21 42.40039 -78.50672 37842 ft 404 kts 248°
2026-05-05 09:21 42.37663 -78.57548 37826 ft 403 kts 248°
2026-05-05 09:22 42.35292 -78.64426 37831 ft 403 kts 249°
2026-05-05 09:22 42.32928 -78.71303 37847 ft 403 kts 249°
2026-05-05 09:23 42.30568 -78.78185 37845 ft 403 kts 249°
2026-05-05 09:23 42.28227 -78.85022 37838 ft 406 kts 249°
2026-05-05 09:24 42.25839 -78.91978 37839 ft 407 kts 249°
2026-05-05 09:24 42.23481 -78.98935 37840 ft 407 kts 249°
2026-05-05 09:25 42.21122 -79.05794 37834 ft 407 kts 249°
2026-05-05 09:25 42.18790 -79.12755 37836 ft 404 kts 254°
2026-05-05 09:26 42.17303 -79.20029 37849 ft 401 kts 261°
2026-05-05 09:26 42.16298 -79.27417 37844 ft 400 kts 263°
2026-05-05 09:27 42.15350 -79.34809 37842 ft 400 kts 263°
2026-05-05 09:27 42.14302 -79.42191 37844 ft 401 kts 262°
2026-05-05 09:28 42.13193 -79.49558 37839 ft 401 kts 261°
2026-05-05 09:28 42.12073 -79.56921 37835 ft 401 kts 261°
2026-05-05 09:29 42.10962 -79.64230 37834 ft 401 kts 261°
2026-05-05 09:29 42.09842 -79.71578 37829 ft 400 kts 262°
2026-05-05 09:30 42.08705 -79.78924 37819 ft 400 kts 261°
2026-05-05 09:30 42.07581 -79.86265 37819 ft 400 kts 262°
2026-05-05 09:31 42.06488 -79.93619 37818 ft 400 kts 262°
2026-05-05 09:31 42.05398 -80.00918 37816 ft 400 kts 262°
2026-05-05 09:32 42.04318 -80.08253 37816 ft 400 kts 262°
2026-05-05 09:32 42.03234 -80.15607 37817 ft 400 kts 262°
2026-05-05 09:33 42.02063 -80.22940 37816 ft 400 kts 261°
2026-05-05 09:33 42.00865 -80.30255 37818 ft 400 kts 261°
2026-05-05 09:34 41.99664 -80.37570 37824 ft 401 kts 261°
2026-05-05 09:34 41.98467 -80.44881 37819 ft 400 kts 261°
2026-05-05 09:35 41.97278 -80.52179 37817 ft 399 kts 261°
2026-05-05 09:35 41.95522 -80.63083 37817 ft 399 kts 261°
2026-05-05 09:36 41.94358 -80.70367 37816 ft 399 kts 261°
2026-05-05 09:36 41.93199 -80.77662 37815 ft 399 kts 261°
2026-05-05 09:37 41.92047 -80.84952 37815 ft 399 kts 261°
2026-05-05 09:37 41.90884 -80.92244 37813 ft 399 kts 261°
2026-05-05 09:38 41.89730 -80.99535 37811 ft 399 kts 261°
2026-05-05 09:38 41.88572 -81.06819 37807 ft 399 kts 261°
2026-05-05 09:39 41.87371 -81.14050 37797 ft 399 kts 261°
2026-05-05 09:39 41.86151 -81.21319 37793 ft 399 kts 261°
2026-05-05 09:40 41.84895 -81.28594 37790 ft 400 kts 260°
2026-05-05 09:40 41.83635 -81.35856 37791 ft 399 kts 260°
2026-05-05 09:41 41.82382 -81.43114 37790 ft 399 kts 260°
2026-05-05 09:41 41.81144 -81.50326 37792 ft 399 kts 260°
2026-05-05 09:42 41.79900 -81.57589 37793 ft 399 kts 260°
2026-05-05 09:42 41.78664 -81.64841 37794 ft 399 kts 260°
2026-05-05 09:43 41.77431 -81.72095 37794 ft 399 kts 261°
2026-05-05 09:43 41.76184 -81.79393 37793 ft 401 kts 261°
2026-05-05 09:44 41.74971 -81.86628 37785 ft 400 kts 260°
2026-05-05 09:44 41.73745 -81.93903 37785 ft 400 kts 261°
2026-05-05 09:45 41.72531 -82.01167 37790 ft 393 kts 261°
2026-05-05 09:45 41.71351 -82.08245 37794 ft 393 kts 262°
2026-05-05 09:46 41.70132 -82.15392 37796 ft 394 kts 261°
2026-05-05 09:46 41.68858 -82.22536 37803 ft 394 kts 261°
2026-05-05 09:47 41.67581 -82.29725 37798 ft 401 kts 260°
2026-05-05 09:47 41.66386 -82.36967 37788 ft 400 kts 261°
2026-05-05 09:48 41.65266 -82.44239 37805 ft 399 kts 262°
2026-05-05 09:48 41.64156 -82.51508 37813 ft 396 kts 262°
2026-05-05 09:49 41.63066 -82.58642 37792 ft 392 kts 262°
2026-05-05 09:49 41.61976 -82.65809 37803 ft 393 kts 262°
2026-05-05 09:50 41.60868 -82.72921 37812 ft 393 kts 261°
2026-05-05 09:50 41.59743 -82.80143 37798 ft 400 kts 261°
2026-05-05 09:51 41.58617 -82.87425 37794 ft 399 kts 262°
2026-05-05 09:51 41.57500 -82.94692 37798 ft 399 kts 262°
2026-05-05 09:52 41.56393 -83.01909 37790 ft 399 kts 262°
2026-05-05 09:52 41.55282 -83.09186 37788 ft 399 kts 262°
2026-05-05 09:53 41.54365 -83.15239 37790 ft 399 kts 262°
2026-05-05 09:53 41.53262 -83.22509 37787 ft 399 kts 262°
2026-05-05 09:54 41.52162 -83.29770 37783 ft 399 kts 262°
2026-05-05 09:54 41.51028 -83.37034 37784 ft 399 kts 261°
2026-05-05 09:55 41.49829 -83.44228 37784 ft 399 kts 261°
2026-05-05 09:55 41.48602 -83.51453 37777 ft 399 kts 261°
2026-05-05 09:56 41.47387 -83.58682 37781 ft 398 kts 261°
2026-05-05 09:56 41.46202 -83.65896 37782 ft 398 kts 261°
2026-05-05 09:57 41.45017 -83.73086 37770 ft 394 kts 261°
2026-05-05 09:57 41.43869 -83.80194 37766 ft 395 kts 261°
2026-05-05 09:58 41.42687 -83.87349 37770 ft 395 kts 261°
2026-05-05 09:58 41.41528 -83.94499 37766 ft 394 kts 261°
2026-05-05 09:59 41.40368 -84.01627 37762 ft 394 kts 261°
2026-05-05 09:59 41.39213 -84.08771 37768 ft 394 kts 261°
2026-05-05 10:00 41.38066 -84.15909 37771 ft 398 kts 262°
2026-05-05 10:00 41.36907 -84.23166 37775 ft 404 kts 262°
2026-05-05 10:01 41.35745 -84.30469 37778 ft 403 kts 262°
2026-05-05 10:01 41.34517 -84.37772 37780 ft 404 kts 261°
2026-05-05 10:02 41.33030 -84.45001 37779 ft 408 kts 253°
2026-05-05 10:02 41.30456 -84.51806 37785 ft 415 kts 244°
2026-05-05 10:03 41.27286 -84.58185 37792 ft 417 kts 240°
2026-05-05 10:03 41.23970 -84.64527 37783 ft 417 kts 241°
2026-05-05 10:04 41.20742 -84.70934 37775 ft 416 kts 242°
2026-05-05 10:04 41.17628 -84.77397 37778 ft 414 kts 243°
2026-05-05 10:05 41.14559 -84.83817 37781 ft 414 kts 243°
2026-05-05 10:05 41.11460 -84.90273 37778 ft 414 kts 243°
2026-05-05 10:06 41.08384 -84.96727 37781 ft 414 kts 243°
2026-05-05 10:06 41.05298 -85.03188 37786 ft 414 kts 243°
2026-05-05 10:07 41.02235 -85.09597 37785 ft 414 kts 243°
2026-05-05 10:07 40.99169 -85.16079 37784 ft 413 kts 245°
2026-05-05 10:08 40.97130 -85.23039 37787 ft 402 kts 262°
2026-05-05 10:08 40.96408 -85.30298 37789 ft 399 kts 269°
2026-05-05 10:09 40.96096 -85.37612 37784 ft 398 kts 270°
2026-05-05 10:09 40.95704 -85.44935 37783 ft 399 kts 268°
2026-05-05 10:10 40.95155 -85.52252 37786 ft 400 kts 267°
2026-05-05 10:10 40.94510 -85.59572 37784 ft 400 kts 267°
2026-05-05 10:11 40.93897 -85.66880 37783 ft 400 kts 267°
2026-05-05 10:11 40.93299 -85.74177 37786 ft 402 kts 267°
2026-05-05 10:12 40.92688 -85.81539 37781 ft 402 kts 267°
2026-05-05 10:12 40.92086 -85.88888 37776 ft 402 kts 267°
2026-05-05 10:13 40.91338 -85.96184 37780 ft 404 kts 263°
2026-05-05 10:13 40.90004 -86.03439 37780 ft 407 kts 258°
2026-05-05 10:14 40.88397 -86.10607 37767 ft 407 kts 257°
2026-05-05 10:14 40.86749 -86.17789 37766 ft 407 kts 258°
2026-05-05 10:15 40.85186 -86.24933 37767 ft 407 kts 258°
2026-05-05 10:15 40.83678 -86.32137 37767 ft 406 kts 259°
2026-05-05 10:16 40.82190 -86.39360 37769 ft 406 kts 259°
2026-05-05 10:16 40.80709 -86.46514 37772 ft 407 kts 258°
2026-05-05 10:17 40.79206 -86.53709 37756 ft 406 kts 259°
2026-05-05 10:17 40.77718 -86.60895 37753 ft 405 kts 258°
2026-05-05 10:18 40.76236 -86.68087 37767 ft 406 kts 258°
2026-05-05 10:18 40.74768 -86.75262 37763 ft 405 kts 258°
2026-05-05 10:19 40.73295 -86.82448 37756 ft 405 kts 258°
2026-05-05 10:19 40.71795 -86.89616 37758 ft 406 kts 258°
2026-05-05 10:20 40.70272 -86.96733 37756 ft 406 kts 258°
2026-05-05 10:20 40.68731 -87.03892 37746 ft 406 kts 257°
2026-05-05 10:21 40.67144 -87.11050 37746 ft 406 kts 257°
2026-05-05 10:21 40.65572 -87.18199 37747 ft 406 kts 257°
2026-05-05 10:22 40.64001 -87.25345 37738 ft 406 kts 257°
2026-05-05 10:22 40.62444 -87.32452 37737 ft 406 kts 257°
2026-05-05 10:23 40.60879 -87.39617 37740 ft 406 kts 257°
2026-05-05 10:23 40.59322 -87.46760 37742 ft 406 kts 257°
2026-05-05 10:24 40.57784 -87.53818 37741 ft 400 kts 257°
2026-05-05 10:24 40.56263 -87.60836 37750 ft 402 kts 257°
2026-05-05 10:25 40.54736 -87.67906 37747 ft 401 kts 257°
2026-05-05 10:25 40.53215 -87.74964 37737 ft 401 kts 257°
2026-05-05 10:26 40.51701 -87.82025 37738 ft 401 kts 258°
2026-05-05 10:26 40.50199 -87.89101 37738 ft 402 kts 257°
2026-05-05 10:27 40.48618 -87.96107 37731 ft 402 kts 257°
2026-05-05 10:27 40.46994 -88.03127 37732 ft 402 kts 256°
2026-05-05 10:28 40.45363 -88.10153 37733 ft 402 kts 256°
2026-05-05 10:28 40.43734 -88.17183 37726 ft 402 kts 257°
2026-05-05 10:29 40.42112 -88.24209 37727 ft 402 kts 257°
2026-05-05 10:29 40.40504 -88.31199 37732 ft 402 kts 257°
2026-05-05 10:30 40.38896 -88.38230 37731 ft 402 kts 257°
2026-05-05 10:30 40.37308 -88.45256 37730 ft 402 kts 257°
2026-05-05 10:31 40.35715 -88.52288 37734 ft 402 kts 257°
2026-05-05 10:31 40.34133 -88.59280 37735 ft 396 kts 257°
2026-05-05 10:32 40.32567 -88.66229 37730 ft 398 kts 257°
2026-05-05 10:32 40.31015 -88.73149 37730 ft 398 kts 257°
2026-05-05 10:33 40.29496 -88.80126 37731 ft 398 kts 258°
2026-05-05 10:33 40.27938 -88.87091 37728 ft 399 kts 256°
2026-05-05 10:34 40.26259 -88.94030 37726 ft 399 kts 256°
2026-05-05 10:34 40.24587 -89.00960 37728 ft 399 kts 256°
2026-05-05 10:35 40.22933 -89.07905 37728 ft 399 kts 256°
2026-05-05 10:35 40.21286 -89.14792 37726 ft 399 kts 256°
2026-05-05 10:36 40.19635 -89.21725 37727 ft 399 kts 256°
2026-05-05 10:36 40.17989 -89.28650 37727 ft 399 kts 256°
2026-05-05 10:37 40.16345 -89.35585 37726 ft 399 kts 256°
2026-05-05 10:37 40.14704 -89.42526 37726 ft 399 kts 256°
2026-05-05 10:38 40.13076 -89.49428 37726 ft 399 kts 256°
2026-05-05 10:38 40.11449 -89.56347 37723 ft 398 kts 256°
2026-05-05 10:39 40.09826 -89.63263 37720 ft 398 kts 256°
2026-05-05 10:39 40.08206 -89.70173 37723 ft 397 kts 256°
2026-05-05 10:40 40.06855 -89.75898 37725 ft 397 kts 256°
2026-05-05 10:40 40.04900 -89.83903 37725 ft 397 kts 255°
2026-05-05 10:41 40.03463 -89.89646 37725 ft 397 kts 255°
2026-05-05 10:41 40.01741 -89.96502 37727 ft 397 kts 255°
2026-05-05 10:42 39.99177 -90.06733 37724 ft 397 kts 255°
2026-05-05 10:43 39.97467 -90.13588 37725 ft 397 kts 255°
2026-05-05 10:43 39.95772 -90.20442 37727 ft 397 kts 255°
2026-05-05 10:44 39.94081 -90.27297 37726 ft 397 kts 255°
2026-05-05 10:44 39.92387 -90.34168 37726 ft 397 kts 256°
2026-05-05 10:45 39.90718 -90.40982 37728 ft 397 kts 256°
2026-05-05 10:45 39.89039 -90.47839 37729 ft 397 kts 256°
2026-05-05 10:46 39.87374 -90.54659 37733 ft 397 kts 256°
2026-05-05 10:46 39.85710 -90.61533 37736 ft 400 kts 256°
2026-05-05 10:47 39.84077 -90.68449 37738 ft 399 kts 256°
2026-05-05 10:47 39.82356 -90.75322 37737 ft 400 kts 255°
2026-05-05 10:48 39.80590 -90.82186 37735 ft 400 kts 255°
2026-05-05 10:48 39.78819 -90.89040 37738 ft 400 kts 255°
2026-05-05 10:49 39.77052 -90.95886 37729 ft 400 kts 255°
2026-05-05 10:49 39.75297 -91.02706 37715 ft 400 kts 255°
2026-05-05 10:50 39.73528 -91.09563 37719 ft 400 kts 255°
2026-05-05 10:50 39.71771 -91.16419 37730 ft 399 kts 255°
2026-05-05 10:51 39.70012 -91.23266 37727 ft 400 kts 255°
2026-05-05 10:51 39.68276 -91.30081 37725 ft 399 kts 255°
2026-05-05 10:52 39.66521 -91.36937 37727 ft 400 kts 255°
2026-05-05 10:52 39.64783 -91.43797 37726 ft 399 kts 255°
2026-05-05 10:53 39.63036 -91.50649 37725 ft 399 kts 255°
2026-05-05 10:53 39.61285 -91.57488 37725 ft 400 kts 255°
2026-05-05 10:54 39.59508 -91.64280 37725 ft 400 kts 255°
2026-05-05 10:54 39.57707 -91.71110 37722 ft 400 kts 255°
2026-05-05 10:55 39.55890 -91.77941 37722 ft 400 kts 254°
2026-05-05 10:55 39.54054 -91.84757 37726 ft 400 kts 255°
2026-05-05 10:56 39.52233 -91.91539 37724 ft 392 kts 255°
2026-05-05 10:56 39.50456 -91.98217 37723 ft 393 kts 255°
2026-05-05 10:57 39.48672 -92.04880 37727 ft 394 kts 256°
2026-05-05 10:57 39.46890 -92.11582 37728 ft 394 kts 256°
2026-05-05 10:58 39.45103 -92.18305 37725 ft 394 kts 256°
2026-05-05 10:58 39.43333 -92.24978 37726 ft 394 kts 256°
2026-05-05 10:59 39.41556 -92.31697 37729 ft 394 kts 256°
2026-05-05 10:59 39.39785 -92.38408 37726 ft 394 kts 256°
2026-05-05 11:00 39.38019 -92.45113 37725 ft 394 kts 256°
2026-05-05 11:00 39.36263 -92.51796 37731 ft 394 kts 256°
2026-05-05 11:01 39.34469 -92.58495 37731 ft 395 kts 255°
2026-05-05 11:01 39.32599 -92.65165 37726 ft 395 kts 255°
2026-05-05 11:02 39.30719 -92.71829 37726 ft 395 kts 255°
2026-05-05 11:02 39.28870 -92.78501 37727 ft 395 kts 255°
2026-05-05 11:03 39.27028 -92.85137 37725 ft 394 kts 255°
2026-05-05 11:03 39.25203 -92.91812 37724 ft 394 kts 255°
2026-05-05 11:04 39.23354 -92.98479 37726 ft 394 kts 255°
2026-05-05 11:04 39.21513 -93.05157 37726 ft 394 kts 255°
2026-05-05 11:05 39.19677 -93.11830 37722 ft 394 kts 255°
2026-05-05 11:05 39.17845 -93.18497 37727 ft 394 kts 255°
2026-05-05 11:06 39.16026 -93.25135 37729 ft 394 kts 255°
2026-05-05 11:06 39.14198 -93.31816 37728 ft 395 kts 255°
2026-05-05 11:07 39.12389 -93.38451 37727 ft 394 kts 256°
2026-05-05 11:07 39.10583 -93.45124 37727 ft 394 kts 256°
2026-05-05 11:08 39.08737 -93.51696 37727 ft 390 kts 255°
2026-05-05 11:08 39.06856 -93.58254 37727 ft 391 kts 255°
2026-05-05 11:09 39.04977 -93.64780 37726 ft 390 kts 255°
2026-05-05 11:09 39.03094 -93.71330 37726 ft 391 kts 255°
2026-05-05 11:10 39.01211 -93.77896 37726 ft 390 kts 255°
2026-05-05 11:10 38.99335 -93.84452 37726 ft 390 kts 255°
2026-05-05 11:11 38.97479 -93.90960 37727 ft 390 kts 255°
2026-05-05 11:11 38.95598 -93.97562 37727 ft 390 kts 255°
2026-05-05 11:12 38.93735 -94.04086 37725 ft 390 kts 255°
2026-05-05 11:12 38.91877 -94.10642 37727 ft 390 kts 256°
2026-05-05 11:13 38.90011 -94.17195 37731 ft 390 kts 256°
2026-05-05 11:13 38.88159 -94.23757 37741 ft 390 kts 256°
2026-05-05 11:14 38.86297 -94.30250 37769 ft 391 kts 255°
2026-05-05 11:14 38.84404 -94.36793 37780 ft 391 kts 255°
2026-05-05 11:15 38.82490 -94.43312 37767 ft 385 kts 255°
2026-05-05 11:15 38.80574 -94.49688 37872 ft 384 kts 255°
2026-05-05 11:16 38.78670 -94.56052 37941 ft 385 kts 255°
2026-05-05 11:16 38.76764 -94.62463 37942 ft 384 kts 255°
2026-05-05 11:17 38.74863 -94.68870 37903 ft 385 kts 255°
2026-05-05 11:17 38.72963 -94.75277 37779 ft 384 kts 255°
2026-05-05 11:18 38.71071 -94.81682 37763 ft 384 kts 255°
2026-05-05 11:18 38.69177 -94.88091 37773 ft 384 kts 255°
2026-05-05 11:19 38.67289 -94.94497 37754 ft 385 kts 256°
2026-05-05 11:19 38.65417 -95.00861 37745 ft 384 kts 256°
2026-05-05 11:20 38.63534 -95.07273 37743 ft 385 kts 256°
2026-05-05 11:20 38.61655 -95.13683 37741 ft 384 kts 256°
2026-05-05 11:21 38.59794 -95.20096 37730 ft 384 kts 256°
2026-05-05 11:21 38.57954 -95.26508 37725 ft 385 kts 255°
2026-05-05 11:22 38.56019 -95.32891 37727 ft 385 kts 255°
2026-05-05 11:22 38.54064 -95.39229 37727 ft 385 kts 255°
2026-05-05 11:23 38.52093 -95.45602 37723 ft 385 kts 255°
2026-05-05 11:23 38.50122 -95.51982 37722 ft 386 kts 255°
2026-05-05 11:24 38.48160 -95.58341 37726 ft 379 kts 256°
2026-05-05 11:24 38.46254 -95.64621 37726 ft 380 kts 256°
2026-05-05 11:25 38.44337 -95.70880 37725 ft 380 kts 256°
2026-05-05 11:25 38.42420 -95.77166 37726 ft 380 kts 256°
2026-05-05 11:26 38.40503 -95.83459 37727 ft 380 kts 256°
2026-05-05 11:26 38.38587 -95.89759 37726 ft 380 kts 256°
2026-05-05 11:27 38.36689 -95.96011 37726 ft 380 kts 256°
2026-05-05 11:27 38.34779 -96.02314 37727 ft 380 kts 257°
2026-05-05 11:28 38.32878 -96.08600 37727 ft 380 kts 257°
2026-05-05 11:28 38.31300 -96.13836 37725 ft 380 kts 257°
2026-05-05 11:29 38.29035 -96.21124 37728 ft 381 kts 256°
2026-05-05 11:29 38.27360 -96.26324 37730 ft 381 kts 256°
2026-05-05 11:30 38.25371 -96.32585 37732 ft 381 kts 256°
2026-05-05 11:30 38.23386 -96.38839 37729 ft 381 kts 256°
2026-05-05 11:31 38.21405 -96.45091 37728 ft 381 kts 256°
2026-05-05 11:31 38.19438 -96.51312 37730 ft 381 kts 256°
2026-05-05 11:32 38.17464 -96.57564 37726 ft 381 kts 256°
2026-05-05 11:32 38.15497 -96.63808 37713 ft 380 kts 256°
2026-05-05 11:33 38.13564 -96.69935 37724 ft 366 kts 257°
2026-05-05 11:33 38.11690 -96.75977 37740 ft 368 kts 257°
2026-05-05 11:34 38.09789 -96.82043 37739 ft 368 kts 257°
2026-05-05 11:34 38.07899 -96.88083 37737 ft 368 kts 257°
2026-05-05 11:35 38.06022 -96.94086 37737 ft 368 kts 257°
2026-05-05 11:35 38.04129 -97.00136 37740 ft 368 kts 257°
2026-05-05 11:36 38.02227 -97.06179 37746 ft 369 kts 257°
2026-05-05 11:36 38.00270 -97.12194 37751 ft 368 kts 256°
2026-05-05 11:37 37.98312 -97.18157 37747 ft 369 kts 256°
2026-05-05 11:37 37.96358 -97.24085 37739 ft 369 kts 257°
2026-05-05 11:38 37.94393 -97.30102 37734 ft 369 kts 257°
2026-05-05 11:38 37.92428 -97.36120 37738 ft 369 kts 257°
2026-05-05 11:39 37.90479 -97.42098 37734 ft 369 kts 257°
2026-05-05 11:39 37.88523 -97.48108 37733 ft 369 kts 257°
2026-05-05 11:40 37.86568 -97.54120 37733 ft 370 kts 257°
2026-05-05 11:40 37.84614 -97.60140 37733 ft 369 kts 257°
2026-05-05 11:41 37.82664 -97.66162 37732 ft 369 kts 257°
2026-05-05 11:41 37.80732 -97.72137 37730 ft 369 kts 257°
2026-05-05 11:42 37.78808 -97.78106 37727 ft 365 kts 257°
2026-05-05 11:42 37.76910 -97.84057 37727 ft 365 kts 257°
2026-05-05 11:43 37.74968 -97.90005 37726 ft 366 kts 257°
2026-05-05 11:43 37.73009 -97.95941 37725 ft 366 kts 256°
2026-05-05 11:44 37.71039 -98.01865 37726 ft 366 kts 256°
2026-05-05 11:44 37.69045 -98.07759 37726 ft 367 kts 256°
2026-05-05 11:45 37.67045 -98.13690 37724 ft 367 kts 256°
2026-05-05 11:45 37.65050 -98.19616 37724 ft 367 kts 256°
2026-05-05 11:46 37.63055 -98.25548 37724 ft 367 kts 256°
2026-05-05 11:46 37.61078 -98.31435 37723 ft 367 kts 256°
2026-05-05 11:47 37.59089 -98.37362 37713 ft 367 kts 256°
2026-05-05 11:47 37.57102 -98.43300 37711 ft 367 kts 256°
2026-05-05 11:48 37.54160 -98.52027 37716 ft 360 kts 256°
2026-05-05 11:48 37.52196 -98.57864 37715 ft 361 kts 256°
2026-05-05 11:49 37.50238 -98.63699 37713 ft 361 kts 256°
2026-05-05 11:49 37.48301 -98.69533 37717 ft 361 kts 256°
2026-05-05 11:50 37.46399 -98.75375 37721 ft 360 kts 256°
2026-05-05 11:50 37.44452 -98.81210 37718 ft 362 kts 256°
2026-05-05 11:51 37.43461 -98.84058 37711 ft 347 kts 257°
2026-05-05 11:51 37.42495 -98.86828 37705 ft 347 kts 257°
2026-05-05 11:51 37.40560 -98.92419 37708 ft 349 kts 257°
2026-05-05 11:52 37.38627 -98.97980 37712 ft 348 kts 257°
2026-05-05 11:52 37.36689 -99.03564 37712 ft 348 kts 257°
2026-05-05 11:53 37.34753 -99.09150 37714 ft 348 kts 257°
2026-05-05 11:53 37.32820 -99.14736 37722 ft 348 kts 257°
2026-05-05 11:54 37.30888 -99.20329 37734 ft 348 kts 257°
2026-05-05 11:54 37.28982 -99.25843 37736 ft 341 kts 257°
2026-05-05 11:55 37.27100 -99.31324 37743 ft 343 kts 257°
2026-05-05 11:55 37.25226 -99.36830 37746 ft 343 kts 257°
2026-05-05 11:56 37.23337 -99.42332 37758 ft 343 kts 257°
2026-05-05 11:56 37.21450 -99.47831 37764 ft 343 kts 257°
2026-05-05 11:57 37.19559 -99.53345 37772 ft 343 kts 257°
2026-05-05 11:57 37.17681 -99.58808 37775 ft 344 kts 257°
2026-05-05 11:58 37.15772 -99.64301 37775 ft 344 kts 257°
2026-05-05 11:58 37.13838 -99.69781 37774 ft 344 kts 257°
2026-05-05 11:59 37.11893 -99.75259 37776 ft 344 kts 257°
2026-05-05 11:59 37.09949 -99.80735 37779 ft 344 kts 257°
2026-05-05 12:00 37.08007 -99.86212 37782 ft 344 kts 257°
2026-05-05 12:00 37.06064 -99.91696 37783 ft 344 kts 257°
2026-05-05 12:01 37.04126 -99.97136 37784 ft 344 kts 257°
2026-05-05 12:01 37.02175 -100.02617 37786 ft 344 kts 257°
2026-05-05 12:02 37.00232 -100.08085 37786 ft 344 kts 257°
2026-05-05 12:02 36.98289 -100.13559 37785 ft 344 kts 257°
2026-05-05 12:03 36.96349 -100.19030 37785 ft 344 kts 257°
2026-05-05 12:03 36.94412 -100.24502 37786 ft 344 kts 257°
2026-05-05 12:04 36.92474 -100.29983 37786 ft 344 kts 257°
2026-05-05 12:04 36.90553 -100.35421 37786 ft 344 kts 257°
2026-05-05 12:05 36.88620 -100.40901 37786 ft 344 kts 257°
2026-05-05 12:05 36.86666 -100.46384 37786 ft 345 kts 256°
2026-05-05 12:06 36.84738 -100.51738 37785 ft 333 kts 256°
2026-05-05 12:06 36.82803 -100.57013 37786 ft 335 kts 256°
2026-05-05 12:07 36.80859 -100.62310 37785 ft 335 kts 256°
2026-05-05 12:07 36.78919 -100.67599 37785 ft 335 kts 256°
2026-05-05 12:08 36.76990 -100.72865 37785 ft 335 kts 256°
2026-05-05 12:08 36.75056 -100.78155 37785 ft 335 kts 256°
2026-05-05 12:09 36.73124 -100.83448 37781 ft 337 kts 256°
2026-05-05 12:09 36.71171 -100.88813 37782 ft 340 kts 256°
2026-05-05 12:10 36.69213 -100.94170 37782 ft 340 kts 256°
2026-05-05 12:10 36.67267 -100.99503 37782 ft 340 kts 256°
2026-05-05 12:11 36.65313 -101.04862 37778 ft 340 kts 256°
2026-05-05 12:11 36.63399 -101.10123 37770 ft 336 kts 255°
2026-05-05 12:12 36.61447 -101.15519 37770 ft 336 kts 255°
2026-05-05 12:12 36.59538 -101.20833 37770 ft 336 kts 255°
2026-05-05 12:13 36.57619 -101.26142 37767 ft 336 kts 255°
2026-05-05 12:13 36.55680 -101.31435 37763 ft 337 kts 255°
2026-05-05 12:14 36.53723 -101.36731 37765 ft 337 kts 255°
2026-05-05 12:14 36.51750 -101.41988 37770 ft 337 kts 255°
2026-05-05 12:15 36.49758 -101.47270 37771 ft 337 kts 255°
2026-05-05 12:15 36.47767 -101.52551 37769 ft 337 kts 255°
2026-05-05 12:16 36.46114 -101.56938 37769 ft 337 kts 255°
2026-05-05 12:16 36.43805 -101.63074 37775 ft 337 kts 255°
2026-05-05 12:17 36.42143 -101.67498 37779 ft 337 kts 255°
2026-05-05 12:17 36.40176 -101.72740 37782 ft 337 kts 255°
2026-05-05 12:18 36.38198 -101.78021 37787 ft 337 kts 255°
2026-05-05 12:18 36.36224 -101.83299 37797 ft 337 kts 255°
2026-05-05 12:19 36.34255 -101.88575 37811 ft 337 kts 255°
2026-05-05 12:19 36.32288 -101.93845 37814 ft 340 kts 255°
2026-05-05 12:20 36.30284 -101.99163 37814 ft 340 kts 255°
2026-05-05 12:20 36.28271 -102.04488 37820 ft 340 kts 255°
2026-05-05 12:21 36.26287 -102.09811 37828 ft 340 kts 255°
2026-05-05 12:21 36.24315 -102.15123 37837 ft 333 kts 255°
2026-05-05 12:22 36.22407 -102.20288 37841 ft 333 kts 255°
2026-05-05 12:22 36.20437 -102.25498 37846 ft 334 kts 254°
2026-05-05 12:23 36.18429 -102.30702 37847 ft 334 kts 254°
2026-05-05 12:23 36.16427 -102.35865 37846 ft 334 kts 254°
2026-05-05 12:24 36.14415 -102.41061 37846 ft 334 kts 254°
2026-05-05 12:24 36.12417 -102.46222 37847 ft 334 kts 254°
2026-05-05 12:25 36.10413 -102.51407 37847 ft 334 kts 254°
2026-05-05 12:25 36.08412 -102.56591 37846 ft 334 kts 254°
2026-05-05 12:26 36.06411 -102.61779 37847 ft 334 kts 254°
2026-05-05 12:26 36.04413 -102.66966 37848 ft 334 kts 254°
2026-05-05 12:27 36.02417 -102.72153 37849 ft 334 kts 254°
2026-05-05 12:27 36.00424 -102.77338 37848 ft 334 kts 254°
2026-05-05 12:28 35.98444 -102.82495 37847 ft 334 kts 254°
2026-05-05 12:28 35.96456 -102.87680 37848 ft 334 kts 254°
2026-05-05 12:29 35.94468 -102.92869 37852 ft 334 kts 254°
2026-05-05 12:29 35.92504 -102.97979 37856 ft 334 kts 254°
2026-05-05 12:30 35.90475 -103.03199 37857 ft 334 kts 254°
2026-05-05 12:30 35.88440 -103.08358 37857 ft 335 kts 253°
2026-05-05 12:31 35.86389 -103.13519 37860 ft 335 kts 253°
2026-05-05 12:31 35.84337 -103.18679 37863 ft 335 kts 253°
2026-05-05 12:32 35.82287 -103.23838 37863 ft 335 kts 253°
2026-05-05 12:32 35.80238 -103.29001 37863 ft 335 kts 253°
2026-05-05 12:33 35.78180 -103.34220 37863 ft 344 kts 253°
2026-05-05 12:33 35.76083 -103.39508 37866 ft 346 kts 253°
2026-05-05 12:34 35.73980 -103.44824 37867 ft 345 kts 253°
2026-05-05 12:34 35.71877 -103.50147 37868 ft 345 kts 253°
2026-05-05 12:35 35.69777 -103.55463 37868 ft 345 kts 253°
2026-05-05 12:35 35.67682 -103.60776 37869 ft 345 kts 253°
2026-05-05 12:36 35.65584 -103.66099 37870 ft 345 kts 253°
2026-05-05 12:36 35.63490 -103.71420 37870 ft 345 kts 253°
2026-05-05 12:37 35.61409 -103.76713 37872 ft 346 kts 253°
2026-05-05 12:37 35.59320 -103.82040 37873 ft 345 kts 253°
2026-05-05 12:38 35.57240 -103.87364 37899 ft 345 kts 253°
2026-05-05 12:38 35.55122 -103.92638 37905 ft 346 kts 252°
2026-05-05 12:39 35.52954 -103.97942 37904 ft 346 kts 252°
2026-05-05 12:39 35.50795 -104.03233 37904 ft 346 kts 252°
2026-05-05 12:40 35.48649 -104.08500 37901 ft 346 kts 252°
2026-05-05 12:40 35.46495 -104.13793 37912 ft 346 kts 252°
2026-05-05 12:41 35.44354 -104.19059 37914 ft 346 kts 253°
2026-05-05 12:41 35.42206 -104.24346 37911 ft 346 kts 253°
2026-05-05 12:42 35.40060 -104.29637 37923 ft 346 kts 253°
2026-05-05 12:42 35.37921 -104.34920 37956 ft 346 kts 253°
2026-05-05 12:43 35.35777 -104.40213 37962 ft 346 kts 252°
2026-05-05 12:43 35.33632 -104.45540 37954 ft 349 kts 252°
2026-05-05 12:44 35.31495 -104.50864 37932 ft 349 kts 252°
2026-05-05 12:44 35.29346 -104.56193 37958 ft 348 kts 252°
2026-05-05 12:45 35.27214 -104.61481 37988 ft 349 kts 252°
2026-05-05 12:45 35.25040 -104.66793 37994 ft 349 kts 252°
2026-05-05 12:46 35.22847 -104.72112 38009 ft 349 kts 251°
2026-05-05 12:46 35.20631 -104.77414 38022 ft 349 kts 251°
2026-05-05 12:47 35.18431 -104.82660 38046 ft 349 kts 251°
2026-05-05 12:47 35.16208 -104.87961 38050 ft 349 kts 251°
2026-05-05 12:48 35.13993 -104.93248 38053 ft 350 kts 251°
2026-05-05 12:48 35.11786 -104.98538 38055 ft 346 kts 251°
2026-05-05 12:49 35.09631 -105.03801 38065 ft 347 kts 251°
2026-05-05 12:49 35.07441 -105.09073 38072 ft 347 kts 251°
2026-05-05 12:50 35.05270 -105.14295 38079 ft 348 kts 251°
2026-05-05 12:50 35.03080 -105.19571 38081 ft 347 kts 251°
2026-05-05 12:51 35.00908 -105.24809 38081 ft 347 kts 251°
2026-05-05 12:51 34.98730 -105.30065 38081 ft 347 kts 251°
2026-05-05 12:52 34.96549 -105.35336 38081 ft 347 kts 251°
2026-05-05 12:52 34.94371 -105.40604 38081 ft 347 kts 251°
2026-05-05 12:53 34.92213 -105.45833 38081 ft 347 kts 251°
2026-05-05 12:53 34.90045 -105.51105 38081 ft 347 kts 251°
2026-05-05 12:54 34.86722 -105.58966 38081 ft 348 kts 250°
2026-05-05 12:55 34.84493 -105.64167 38081 ft 348 kts 250°
2026-05-05 12:55 34.82256 -105.69396 38081 ft 348 kts 250°
2026-05-05 12:56 34.80022 -105.74623 38081 ft 348 kts 250°
2026-05-05 12:56 34.77789 -105.79851 38081 ft 348 kts 250°
2026-05-05 12:57 34.75558 -105.85081 38083 ft 348 kts 250°
2026-05-05 12:57 34.73343 -105.90277 38085 ft 348 kts 250°
2026-05-05 12:58 34.71115 -105.95512 38083 ft 348 kts 251°
2026-05-05 12:58 34.68895 -106.00731 38080 ft 348 kts 251°
2026-05-05 12:59 34.66690 -106.05905 38079 ft 339 kts 250°
2026-05-05 12:59 34.64528 -106.11019 38084 ft 342 kts 250°
2026-05-05 13:00 34.61273 -106.18697 38090 ft 342 kts 250°
2026-05-05 13:01 34.56909 -106.28949 38070 ft 341 kts 249°
2026-05-05 13:01 34.54715 -106.34065 38067 ft 342 kts 249°
2026-05-05 13:02 34.52514 -106.39180 38061 ft 342 kts 249°
2026-05-05 13:02 34.50310 -106.44240 38054 ft 341 kts 249°
2026-05-05 13:03 34.48092 -106.49336 38052 ft 341 kts 249°
2026-05-05 13:03 34.45878 -106.54429 38049 ft 342 kts 249°
2026-05-05 13:04 34.43656 -106.59541 38040 ft 342 kts 249°
2026-05-05 13:04 34.41817 -106.63780 38038 ft 342 kts 249°
2026-05-05 13:05 34.39243 -106.69720 38040 ft 342 kts 249°
2026-05-05 13:05 34.37405 -106.73964 38040 ft 342 kts 249°
2026-05-05 13:06 34.35187 -106.79068 38037 ft 342 kts 249°
2026-05-05 13:06 34.32476 -106.83915 38037 ft 356 kts 239°
2026-05-05 13:07 34.29047 -106.88342 38039 ft 363 kts 234°
2026-05-05 13:07 34.25403 -106.92578 38030 ft 364 kts 233°
2026-05-05 13:08 34.21763 -106.96811 38027 ft 362 kts 234°
2026-05-05 13:08 34.18174 -107.01065 38024 ft 362 kts 234°
2026-05-05 13:09 34.14621 -107.05373 38014 ft 362 kts 235°
2026-05-05 13:09 34.11056 -107.09683 38035 ft 364 kts 234°
2026-05-05 13:10 34.07490 -107.14001 38028 ft 363 kts 235°
2026-05-05 13:10 34.03949 -107.18289 38029 ft 362 kts 234°
2026-05-05 13:11 34.00391 -107.22599 38028 ft 362 kts 235°
2026-05-05 13:11 33.96832 -107.26909 38019 ft 361 kts 235°
2026-05-05 13:12 33.93281 -107.31221 38024 ft 362 kts 235°
2026-05-05 13:12 33.89718 -107.35537 38021 ft 363 kts 235°
2026-05-05 13:13 33.86178 -107.39829 38024 ft 362 kts 235°
2026-05-05 13:13 33.82637 -107.44138 38014 ft 362 kts 235°
2026-05-05 13:14 33.79094 -107.48440 38027 ft 362 kts 235°
2026-05-05 13:14 33.75511 -107.52734 38033 ft 367 kts 234°
2026-05-05 13:15 33.71854 -107.57061 38045 ft 370 kts 233°
2026-05-05 13:15 33.68160 -107.61391 38049 ft 371 kts 233°
2026-05-05 13:16 33.64485 -107.65742 38050 ft 370 kts 234°
2026-05-05 13:16 33.60827 -107.70095 38052 ft 371 kts 234°
2026-05-05 13:17 33.57149 -107.74460 37871 ft 371 kts 234°
2026-05-05 13:17 33.55309 -107.76644 37635 ft 371 kts 234°
2026-05-05 13:17 33.53482 -107.78826 37385 ft 372 kts 234°
2026-05-05 13:18 33.51639 -107.81028 37139 ft 374 kts 234°
2026-05-05 13:18 33.49822 -107.83203 36889 ft 375 kts 234°
2026-05-05 13:18 33.47967 -107.85406 36633 ft 376 kts 234°
2026-05-05 13:18 33.46107 -107.87610 36372 ft 377 kts 234°
2026-05-05 13:19 33.44250 -107.89827 36116 ft 377 kts 234°
2026-05-05 13:19 33.42399 -107.92044 35866 ft 377 kts 234°
2026-05-05 13:19 33.40541 -107.94274 35616 ft 379 kts 234°
2026-05-05 13:19 33.38674 -107.96511 35315 ft 380 kts 234°
2026-05-05 13:20 33.36795 -107.98752 34896 ft 382 kts 234°
2026-05-05 13:20 33.34896 -108.00993 34452 ft 384 kts 233°
2026-05-05 13:20 33.32991 -108.03244 34004 ft 386 kts 233°
2026-05-05 13:20 33.31083 -108.05511 33555 ft 388 kts 233°
2026-05-05 13:21 33.29162 -108.07784 33108 ft 387 kts 232°
2026-05-05 13:21 33.27284 -108.10000 32662 ft 379 kts 232°
2026-05-05 13:21 33.25408 -108.12212 32204 ft 373 kts 232°
2026-05-05 13:21 33.23575 -108.14369 31759 ft 376 kts 232°
2026-05-05 13:22 33.21699 -108.16560 31311 ft 381 kts 232°
2026-05-05 13:22 33.19799 -108.18784 30862 ft 381 kts 231°
2026-05-05 13:22 33.17906 -108.20992 30412 ft 379 kts 231°
2026-05-05 13:22 33.16009 -108.23188 29960 ft 378 kts 230°
2026-05-05 13:23 33.14132 -108.25365 29509 ft 376 kts 230°
2026-05-05 13:23 33.12266 -108.27544 29058 ft 374 kts 230°
2026-05-05 13:23 33.10398 -108.29714 28607 ft 373 kts 230°
2026-05-05 13:23 33.08541 -108.31868 28156 ft 371 kts 229°
2026-05-05 13:24 33.06694 -108.34024 27704 ft 370 kts 229°
2026-05-05 13:24 33.04864 -108.36175 27254 ft 368 kts 229°
2026-05-05 13:24 33.03073 -108.38279 26808 ft 364 kts 229°
2026-05-05 13:24 33.01275 -108.40388 26356 ft 360 kts 230°
2026-05-05 13:25 32.99502 -108.42473 26161 ft 357 kts 230°
2026-05-05 13:25 32.97727 -108.44548 26091 ft 358 kts 230°
2026-05-05 13:25 32.95941 -108.46634 26079 ft 359 kts 230°
2026-05-05 13:25 32.94156 -108.48724 26074 ft 359 kts 230°
2026-05-05 13:26 32.92370 -108.50819 26070 ft 359 kts 230°
2026-05-05 13:26 32.90587 -108.52910 26059 ft 360 kts 230°
2026-05-05 13:26 32.88803 -108.54995 26043 ft 359 kts 230°
2026-05-05 13:26 32.87044 -108.57051 26036 ft 359 kts 230°
2026-05-05 13:27 32.85259 -108.59139 26047 ft 359 kts 230°
2026-05-05 13:27 32.83475 -108.61223 26056 ft 359 kts 230°
2026-05-05 13:27 32.81691 -108.63311 26060 ft 359 kts 230°
2026-05-05 13:27 32.79908 -108.65395 26063 ft 359 kts 230°
2026-05-05 13:28 32.78121 -108.67486 26064 ft 360 kts 229°
2026-05-05 13:28 32.76328 -108.69569 26060 ft 360 kts 229°
2026-05-05 13:28 32.74525 -108.71650 26054 ft 360 kts 229°
2026-05-05 13:28 32.72721 -108.73716 25922 ft 360 kts 229°
2026-05-05 13:29 32.70942 -108.75757 25716 ft 359 kts 229°
2026-05-05 13:29 32.69157 -108.77810 25493 ft 356 kts 229°
2026-05-05 13:29 32.67384 -108.79856 25268 ft 355 kts 229°
2026-05-05 13:29 32.65618 -108.81897 25043 ft 353 kts 229°
2026-05-05 13:30 32.63854 -108.83913 24813 ft 352 kts 228°
2026-05-05 13:30 32.62089 -108.85922 24568 ft 350 kts 228°
2026-05-05 13:30 32.60328 -108.87921 24318 ft 349 kts 228°
2026-05-05 13:30 32.58582 -108.89918 24067 ft 348 kts 228°
2026-05-05 13:31 32.56843 -108.91912 23817 ft 347 kts 228°
2026-05-05 13:31 32.55112 -108.93900 23566 ft 346 kts 228°
2026-05-05 13:31 32.53381 -108.95878 23315 ft 344 kts 228°
2026-05-05 13:31 32.51657 -108.97846 23064 ft 344 kts 228°
2026-05-05 13:32 32.49941 -108.99803 22814 ft 342 kts 228°
2026-05-05 13:32 32.48225 -109.01761 22563 ft 341 kts 228°
2026-05-05 13:32 32.46518 -109.03719 22312 ft 340 kts 228°
2026-05-05 13:32 32.44848 -109.05640 22141 ft 339 kts 228°
2026-05-05 13:33 32.43162 -109.07580 22052 ft 338 kts 228°
2026-05-05 13:33 32.41476 -109.09518 22026 ft 338 kts 228°
2026-05-05 13:33 32.39789 -109.11459 22023 ft 338 kts 228°
2026-05-05 13:33 32.38097 -109.13405 22023 ft 339 kts 228°
2026-05-05 13:34 32.36405 -109.15351 22023 ft 339 kts 228°
2026-05-05 13:34 32.34718 -109.17292 22022 ft 339 kts 228°
2026-05-05 13:34 32.33029 -109.19235 22033 ft 339 kts 228°
2026-05-05 13:34 32.31338 -109.21176 22048 ft 339 kts 227°
2026-05-05 13:35 32.29629 -109.23105 22042 ft 339 kts 227°
2026-05-05 13:35 32.28130 -109.25220 22016 ft 334 kts 242°
2026-05-05 13:35 32.27399 -109.27797 22010 ft 328 kts 261°
2026-05-05 13:35 32.27474 -109.30409 22007 ft 310 kts 274°
2026-05-05 13:36 32.27966 -109.32878 22008 ft 311 kts 280°
2026-05-05 13:36 32.28641 -109.35327 22014 ft 314 kts 283°
2026-05-05 13:36 32.29394 -109.37760 22020 ft 316 kts 284°
2026-05-05 13:36 32.30181 -109.40160 22023 ft 312 kts 284°
2026-05-05 13:37 32.30998 -109.42541 22025 ft 313 kts 284°
2026-05-05 13:37 32.31830 -109.44919 22028 ft 313 kts 285°
2026-05-05 13:37 32.32672 -109.47307 22013 ft 314 kts 285°
2026-05-05 13:37 32.33514 -109.49681 21995 ft 313 kts 285°
2026-05-05 13:38 32.34349 -109.52031 21986 ft 313 kts 285°
2026-05-05 13:38 32.35192 -109.54403 21914 ft 314 kts 285°
2026-05-05 13:38 32.36039 -109.56780 21478 ft 312 kts 285°
2026-05-05 13:38 32.36879 -109.59123 21029 ft 306 kts 285°
2026-05-05 13:39 32.37703 -109.61425 20577 ft 306 kts 285°
2026-05-05 13:39 32.38524 -109.63762 20128 ft 308 kts 285°
2026-05-05 13:39 32.39333 -109.66107 19678 ft 307 kts 285°
2026-05-05 13:39 32.40128 -109.68453 19227 ft 307 kts 285°
2026-05-05 13:40 32.40909 -109.70797 18777 ft 306 kts 285°
2026-05-05 13:40 32.41676 -109.73141 18325 ft 303 kts 285°
2026-05-05 13:40 32.42427 -109.75466 17874 ft 301 kts 285°
2026-05-05 13:40 32.43166 -109.77780 17423 ft 299 kts 285°
2026-05-05 13:41 32.43890 -109.80075 16974 ft 297 kts 285°
2026-05-05 13:41 32.44605 -109.82368 16523 ft 296 kts 285°
2026-05-05 13:41 32.45300 -109.84622 16077 ft 294 kts 285°
2026-05-05 13:41 32.45993 -109.86895 15626 ft 292 kts 285°
2026-05-05 13:42 32.46674 -109.89153 15176 ft 290 kts 285°
2026-05-05 13:42 32.47345 -109.91407 14724 ft 289 kts 285°
2026-05-05 13:42 32.48005 -109.93647 14273 ft 287 kts 285°
2026-05-05 13:42 32.48656 -109.95881 13822 ft 287 kts 285°
2026-05-05 13:43 32.49297 -109.98096 13376 ft 288 kts 285°
2026-05-05 13:43 32.49952 -110.00373 12923 ft 288 kts 285°
2026-05-05 13:43 32.50585 -110.02579 12591 ft 287 kts 285°
2026-05-05 13:43 32.51228 -110.04833 12265 ft 288 kts 285°
2026-05-05 13:44 32.51867 -110.07082 12084 ft 288 kts 285°
2026-05-05 13:44 32.52504 -110.09330 11995 ft 289 kts 285°
2026-05-05 13:44 32.53128 -110.11539 11975 ft 288 kts 285°
2026-05-05 13:44 32.53569 -110.13890 11965 ft 285 kts 271°
2026-05-05 13:45 32.53448 -110.16228 11978 ft 284 kts 261°
2026-05-05 13:45 32.53100 -110.18526 11982 ft 284 kts 257°
2026-05-05 13:45 32.52667 -110.20810 11982 ft 284 kts 256°
2026-05-05 13:45 32.52204 -110.23083 11982 ft 284 kts 256°
2026-05-05 13:46 32.51737 -110.25317 11984 ft 284 kts 255°
2026-05-05 13:46 32.51257 -110.27593 11989 ft 284 kts 255°
2026-05-05 13:46 32.50776 -110.29870 12000 ft 284 kts 255°
2026-05-05 13:46 32.50313 -110.32100 12002 ft 277 kts 255°
2026-05-05 13:47 32.49877 -110.34301 12005 ft 277 kts 255°
2026-05-05 13:47 32.49443 -110.36534 12005 ft 278 kts 255°
2026-05-05 13:47 32.49012 -110.38762 12006 ft 278 kts 255°
2026-05-05 13:47 32.48582 -110.40996 12010 ft 278 kts 255°
2026-05-05 13:48 32.48151 -110.43235 12012 ft 278 kts 255°
2026-05-05 13:48 32.47723 -110.45466 12013 ft 278 kts 255°
2026-05-05 13:48 32.47292 -110.47708 12014 ft 278 kts 255°
2026-05-05 13:48 32.46869 -110.49914 12015 ft 278 kts 255°
2026-05-05 13:49 32.46441 -110.52147 12016 ft 278 kts 255°
2026-05-05 13:49 32.46012 -110.54383 12016 ft 278 kts 255°
2026-05-05 13:49 32.45585 -110.56613 12016 ft 278 kts 255°
2026-05-05 13:49 32.45156 -110.58853 12016 ft 278 kts 255°
2026-05-05 13:50 32.44728 -110.61089 12015 ft 278 kts 255°
2026-05-05 13:50 32.44301 -110.63324 12016 ft 278 kts 255°
2026-05-05 13:50 32.43874 -110.65560 12016 ft 278 kts 255°
2026-05-05 13:50 32.43452 -110.67765 12015 ft 276 kts 255°
2026-05-05 13:51 32.43040 -110.69935 12012 ft 267 kts 255°
2026-05-05 13:51 32.42633 -110.72081 12015 ft 267 kts 255°
2026-05-05 13:51 32.42227 -110.74223 12016 ft 267 kts 255°
2026-05-05 13:51 32.41822 -110.76365 12016 ft 267 kts 256°
2026-05-05 13:52 32.41673 -110.77813 12007 ft 270 kts 267°
2026-05-05 13:52 32.41992 -110.80027 12022 ft 275 kts 282°
2026-05-05 13:52 32.42926 -110.82851 11704 ft 279 kts 289°
2026-05-05 13:52 32.43479 -110.84255 11484 ft 279 kts 290°
2026-05-05 13:53 32.44330 -110.86317 11158 ft 278 kts 291°
2026-05-05 13:53 32.45190 -110.88361 10832 ft 276 kts 291°
2026-05-05 13:53 32.46043 -110.90368 10503 ft 270 kts 291°
2026-05-05 13:53 32.46873 -110.92318 10179 ft 266 kts 291°
2026-05-05 13:54 32.47700 -110.94262 9851 ft 263 kts 291°
2026-05-05 13:54 32.48517 -110.96189 9522 ft 260 kts 292°
2026-05-05 13:54 32.49307 -110.98112 9197 ft 258 kts 292°
2026-05-05 13:54 32.50074 -111.00022 8937 ft 254 kts 292°
2026-05-05 13:55 32.50823 -111.01898 8684 ft 251 kts 292°
2026-05-05 13:55 32.51566 -111.03758 8431 ft 248 kts 292°
2026-05-05 13:55 32.52298 -111.05599 8179 ft 246 kts 291°
2026-05-05 13:55 32.53025 -111.07431 7927 ft 244 kts 291°
2026-05-05 13:56 32.53745 -111.09248 7676 ft 243 kts 292°
2026-05-05 13:56 32.54458 -111.11053 7427 ft 242 kts 291°
2026-05-05 13:56 32.55160 -111.12837 7179 ft 241 kts 291°
2026-05-05 13:56 32.55867 -111.14631 6929 ft 240 kts 292°
2026-05-05 13:57 32.56571 -111.16419 6678 ft 239 kts 291°
2026-05-05 13:57 32.57272 -111.18200 6445 ft 238 kts 292°
2026-05-05 13:57 32.57969 -111.19975 6244 ft 236 kts 292°
2026-05-05 13:57 32.58658 -111.21733 6044 ft 235 kts 292°
2026-05-05 13:58 32.59348 -111.23498 5843 ft 236 kts 291°
2026-05-05 13:58 32.60036 -111.25259 5643 ft 235 kts 291°
2026-05-05 13:58 32.60720 -111.27011 5443 ft 234 kts 292°
2026-05-05 13:58 32.61400 -111.28762 5244 ft 234 kts 292°
2026-05-05 13:59 32.62742 -111.32223 5034 ft 224 kts 292°
2026-05-05 13:59 32.63383 -111.33866 4980 ft 215 kts 291°
2026-05-05 14:00 32.64575 -111.36888 4817 ft 190 kts 291°
2026-05-05 14:00 32.65132 -111.38286 4684 ft 188 kts 291°
2026-05-05 14:00 32.65692 -111.39686 4562 ft 187 kts 292°
2026-05-05 14:00 32.66250 -111.41084 4500 ft 187 kts 292°
2026-05-05 14:01 32.66742 -111.42511 4474 ft 186 kts 282°
2026-05-05 14:01 32.66788 -111.44017 4457 ft 182 kts 257°
2026-05-05 14:01 32.66059 -111.45206 4485 ft 182 kts 218°
2026-05-05 14:01 32.64837 -111.45554 4514 ft 186 kts 181°
2026-05-05 14:02 32.63626 -111.45000 4538 ft 193 kts 156°
2026-05-05 14:02 32.62475 -111.44179 4422 ft 193 kts 152°
2026-05-05 14:02 32.61440 -111.43164 4219 ft 194 kts 140°
2026-05-05 14:02 32.60417 -111.42128 4023 ft 192 kts 145°
2026-05-05 14:03 32.59370 -111.41184 3814 ft 182 kts 147°
2026-05-05 14:03 32.58380 -111.40338 3589 ft 169 kts 149°
2026-05-05 14:03 32.57433 -111.39522 3367 ft 168 kts 148°
2026-05-05 14:03 32.56489 -111.38705 3179 ft 166 kts 148°
2026-05-05 14:04 32.55632 -111.37782 2977 ft 167 kts 140°
2026-05-05 14:04 32.54858 -111.36825 2726 ft 156 kts 137°
2026-05-05 14:04 32.54091 -111.35965 2491 ft 147 kts 141°
2026-05-05 14:04 32.53313 -111.35208 2229 ft 143 kts 140°
2026-05-05 14:05 32.52596 -111.34453 2062 ft 132 kts 137°
2026-05-05 14:05 32.51964 -111.33721 1922 ft 123 kts 134°
2026-05-05 14:05 32.51395 -111.33033 1903 ft 103 kts 135°
2026-05-05 14:05 32.51051 -111.32623 1903 ft 34 kts 134°
2026-05-05 14:06 32.50892 -111.32432 1903 ft 34 kts 134°
2026-05-05 14:06 32.50740 -111.32250 1903 ft 21 kts 134°
2026-05-05 14:06 32.50651 -111.32142 1903 ft 20 kts 134°
2026-05-05 14:06 32.50608 -111.32060 1903 ft 11 kts 78°
2026-05-05 14:07 32.50663 -111.31978 1903 ft 11 kts 45°
2026-05-05 14:07 32.50736 -111.31948 1903 ft 11 kts 319°
2026-05-05 14:07 32.50781 -111.32024 1903 ft 14 kts 303°
2026-05-05 14:07 32.50833 -111.32093 1903 ft 13 kts 315°
2026-05-05 14:08 32.50899 -111.32170 1903 ft 8 kts 315°
2026-05-05 14:08 32.50952 -111.32232 1903 ft 14 kts 315°
2026-05-05 14:08 32.51017 -111.32310 1903 ft 10 kts 314°
2026-05-05 14:08 32.51067 -111.32363 1903 ft 10 kts 343°
2026-05-05 14:09 32.51101 -111.32339 1903 ft 5 kts 45°
2026-05-05 14:09 32.51123 -111.32312 1903 ft 4 kts 45°
2026-05-05 14:09 32.51135 -111.32298 1903 ft 0 kts 45°